Regional Weather Roundup
Issued by NWS

Home | Current Version | Previous Version | Graphics & Text | Print | Product List | Glossary On
Versions: 1 2 3 4 5 6 7 8 9 10 11 12 13 14 15 16 17 18 19 20 21 22 23 24 25 26 27 28 29 30 31 32 33 34 35 36 37 38 39 40 41 42 43 44 45 46 47 48 49 50
000
ASUS44 KMEG 090210
RWRTN
TENNESSEE HOURLY STATE WEATHER ROUNDUP
NATIONAL WEATHER SERVICE MEMPHIS TN
800 PM CST THU DEC 08 2016

TNZ002-004-019-021-049-052-054-088>092-090300-
WEST TENNESSEE

CITY           SKY/WX    TMP DP  RH WIND       PRES   REMARKS
MEMPHIS INTL   PTCLDY    32  16  51 CALM      30.56R
NWS MEMPHIS      N/A     28 N/A N/A MISG        N/A
JACKSON        CLEAR     29  19  66 W5        30.55R WCI  24
DYERSBURG      CLEAR     27  19  74 W3        30.55R
UNION CITY     CLEAR     25  16  68 CALM      30.53R
PARIS          CLEAR     23  12  63 CALM      30.52R
HUNTINGDON     CLEAR     28  16  59 W5        30.52R WCI  23
LEXINGTON      CLEAR     28  12  50 NW5       30.51R WCI  23
$$

TNZ008-025-027-028-033-062-065-066-090300-
NORTH MIDDLE TENNESSEE

CITY           SKY/WX    TMP DP  RH WIND       PRES   REMARKS
NASHVILLE      CLEAR     31  14  49 NW6       30.49R WCI  25
PORTLAND       CLEAR     27  18  69 NW8       30.48R WCI  18
CLARKSVILLE    CLEAR     26  14  60 N8        30.51R WCI  18
SMYRNA         CLEAR     27  17  66 NW7       30.50R WCI  19
GALLATIN       CLEAR     28  16  59 NW5       30.52R WCI  23
CROSSVILLE     CLEAR     27  14  58 NW8       30.37R WCI  19
$$

TNZ061-075-076-078-094-096-097-090300-
SOUTH MIDDLE TENNESSEE

CITY           SKY/WX    TMP DP  RH WIND       PRES   REMARKS
FAYETTEVILLE   CLEAR     34  16  47 NW9       30.43S WCI  26
TULLAHOMA      CLEAR     28  14  54 N12       30.43R WCI  18
WINCHESTER     CLEAR     30  16  55 N7        30.44R WCI  23
MCMINNVILLE    CLEAR     28  16  59 NW6         N/A  WCI  22
COLUMBIA       CLEAR     30  14  51 NW3       30.47R
SHELBYVILLE    CLEAR     30  19  64 N6        30.46S WCI  24
$$

TNZ017-018-042-046-047-090300-
NORTHEAST TENNESSEE

CITY           SKY/WX    TMP DP  RH WIND       PRES   REMARKS
TRI CITIES     PTCLDY    32  14  47 W12       30.29R WCI  23
ELIZABETHTON   CLEAR     32  14  47 VRB6      30.28R WCI  26
$$

TNZ012-013-036-069-073-074-090300-
CENTRAL EAST TENNESSEE

CITY           SKY/WX    TMP DP  RH WIND       PRES   REMARKS
KNOXVILLE      MOCLDY    35  15  44 W9        30.36R WCI  28
OAK RIDGE      PTCLDY    34  15  46 CALM      30.39R
DOWNTOWN KNOXV CLEAR     36  19  51 VRB5      30.38R WCI  32
GATLINBURG     CLEAR     32  16  51 NW3       30.36R
MORRISTOWN     CLEAR     32  14  47 N9        30.34R WCI  24
JACKSBORO      CLEAR     32  18  55 CALM      30.41R
$$

TNZ083-085-099-090300-
SOUTHEAST TENNESSEE

CITY           SKY/WX    TMP DP  RH WIND       PRES   REMARKS
CHATTANOOGA    PTCLDY    35  17  47 NW6       30.42R WCI  30
$$

SKY/WX REPORTED AS FAIR MEANS FEW OR NO CLOUDS BELOW
12 THOUSAND FEET.





USA.gov is the U.S. government's official web portal to all federal, state and local government web resources and services.